Lancaster, CA

11:18 AM PDT on May 23, 2017 (GMT -0700)
Gen Fox

Weather History for KWJF - April, 2013

Change the Weather History Date:

Saturday, April 27, 2013

  Actual Average Record
Temperature  
Mean Temperature 71 °F 62 °F  
Max Temperature 92 °F 76 °F 95 °F (2004)
Min Temperature 49 °F 48 °F 32 °F (1971)
Degree Days  
Heating Degree Days 0    
Month to date heating degree days 107  
Since 1 July heating degree days 2685  
Cooling Degree Days 6    
Month to date cooling degree days 41  
Year to date cooling degree days 53  
Growing Degree Days 20 (Base 50)    
Moisture  
Dew Point 30 °F    
Average Humidity 26    
Maximum Humidity 46    
Minimum Humidity 6    
Precipitation  
Precipitation 0.00 in 0.01 in 0.16 in (1960)
Month to date precipitation 0.00 0.33  
Year to date precipitation 0.95 4.75  
Since 1 July precipitation 1.11  
Snow  
Snow 0.00 in - 0.00 in ()
Month to date snowfall 0.0  
Since 1 July snowfall 0.0  
Snow Depth 0.00 in    
Sea Level Pressure  
Sea Level Pressure 30.08 in    
Wind  
Wind Speed 9 mph (WNW)    
Max Wind Speed 26 mph    
Max Gust Speed 32 mph    
Visibility 10 miles    
Events      
T = Trace of Precipitation, MM = Missing Value Source: NWS Daily Summary

Daily Weather History Graph

Daily Weather History Graph

Search for Another Location

Airport or City:

Trip Planner

Search our weather history database for the weather conditions in past years. The results will help you decide how hot, cold, wet, or windy it might be!

Date:

Astronomy

Apr. 27, 2013 Rise Set
Actual Time 6:06 AM PDT 7:34 PM PDT
Civil Twilight 5:39 AM PDT 8:01 PM PDT
Nautical Twilight 5:07 AM PDT 8:33 PM PDT
Astronomical Twilight 4:34 AM PDT 9:07 PM PDT
Moon 10:04 PM PDT (4/27) 7:33 AM PDT (4/27)
Length of Visible Light 14h 22m
Length of Day
13h 28m
Waning Gibbous, 95% of the Moon is Illuminated
Apr 27
Waning Gibbous
May 2
Last Quarter
May 9
New
May 17
First Quarter
May 24
Full

Hourly Weather History & Observations

Time (PDT) Temp. Dew Point Humidity Pressure Visibility Wind Dir Wind Speed Gust Speed Precip Events Conditions
12:56 AM 66.9 °F 34.0 °F 30% 30.12 in 10.0 mi West 15.0 mph - N/A   Clear
1:56 AM 66.0 °F 36.0 °F 33% 30.11 in 10.0 mi West 13.8 mph - N/A   Clear
2:56 AM 64.0 °F 34.0 °F 33% 30.10 in 10.0 mi West 11.5 mph - N/A   Clear
3:56 AM 62.1 °F 33.1 °F 34% 30.11 in 10.0 mi West 4.6 mph - N/A   Clear
4:56 AM 54.0 °F 32.0 °F 43% 30.12 in 10.0 mi ENE 5.8 mph - N/A   Clear
5:56 AM 50.0 °F 30.9 °F 48% 30.14 in 10.0 mi ENE 4.6 mph - N/A   Clear
6:56 AM 53.1 °F 32.0 °F 45% 30.17 in 10.0 mi Calm Calm - N/A   Clear
7:56 AM 62.1 °F 34.0 °F 35% 30.17 in 10.0 mi Calm Calm - N/A   Clear
8:56 AM 71.1 °F 34.0 °F 26% 30.16 in 10.0 mi Calm Calm - N/A   Clear
9:56 AM 78.1 °F 30.9 °F 18% 30.14 in 10.0 mi Calm Calm - N/A   Clear
10:56 AM 82.0 °F 28.9 °F 14% 30.14 in 10.0 mi Calm Calm - N/A   Clear
11:56 AM 86.0 °F 26.1 °F 11% 30.12 in 10.0 mi ENE 9.2 mph - N/A   Clear
12:56 PM 88.0 °F 25.0 °F 10% 30.09 in 10.0 mi Variable 5.8 mph - N/A   Clear
1:56 PM 91.0 °F 17.1 °F 7% 30.05 in 10.0 mi ENE 8.1 mph - N/A   Clear
2:56 PM 91.9 °F 16.0 °F 6% 30.03 in 10.0 mi East 8.1 mph 18.4 mph N/A   Clear
3:56 PM 91.0 °F 17.1 °F 7% 30.00 in 10.0 mi SE 5.8 mph - N/A   Clear
4:56 PM 90.0 °F 21.9 °F 8% 30.00 in 10.0 mi Calm Calm - N/A   Clear
5:56 PM 89.1 °F 21.0 °F 8% 30.00 in 10.0 mi NW 17.3 mph - N/A   Clear
6:56 PM 81.0 °F 34.0 °F 18% 30.01 in 10.0 mi West 24.2 mph 31.1 mph N/A   Clear
7:56 PM 77.0 °F 36.0 °F 23% 30.00 in 10.0 mi West 18.4 mph - N/A   Clear
8:56 PM 73.9 °F 39.0 °F 28% 30.01 in 10.0 mi West 20.7 mph - N/A   Clear
9:56 PM 72.0 °F 37.0 °F 28% 30.02 in 10.0 mi West 16.1 mph - N/A   Clear
10:56 PM 72.0 °F 36.0 °F 27% 30.01 in 10.0 mi West 15.0 mph - N/A   Clear
11:56 PM 70.0 °F 36.0 °F 29% 30.00 in 10.0 mi West 13.8 mph - N/A   Clear